Hourly Weather Gogaz

Today, 7 May, Friday

Time Temperature Precipitation Wind Pressure Humidity
00:00 +4°C° 0 mm 1 mps 582 mmHg 68%
01:00 +3°C° 0 mm 1 mps 582 mmHg 65%
02:00 +2°C° 0 mm 2 mps 581 mmHg 61%
03:00 +2°C° 0 mm 2 mps 581 mmHg 58%
04:00 +4°C° 0 mm 1 mps 582 mmHg 56%
05:00 +5°C° 0 mm 1 mps 582 mmHg 55%
06:00 +6°C° 0 mm 1 mps 583 mmHg 53%
07:00 +7°C° 0 mm 1 mps 583 mmHg 52%
08:00 +8°C° 0 mm 1 mps 584 mmHg 50%
09:00 +9°C° 0 mm 2 mps 585 mmHg 48%
10:00 +9°C° 0 mm 2 mps 585 mmHg 50%
11:00 +10°C° 0 mm 2 mps 585 mmHg 52%
12:00 +10°C° 0 mm 3 mps 586 mmHg 54%
13:00 +10°C° 0.1 mm 3 mps 586 mmHg 58%
14:00 +9°C° 0.1 mm 3 mps 586 mmHg 61%
15:00 +9°C° 0.1 mm 3 mps 586 mmHg 65%
16:00 +8°C° 0.1 mm 2 mps 586 mmHg 70%
17:00 +7°C° 0.1 mm 2 mps 586 mmHg 76%
18:00 +7°C° 0.1 mm 1 mps 586 mmHg 81%
19:00 +7°C° 0.1 mm 1 mps 586 mmHg 83%
20:00 +6°C° 0.1 mm 1 mps 586 mmHg 84%
21:00 +5°C° 0.1 mm 1 mps 586 mmHg 85%
22:00 +5°C° 0 mm 1 mps 586 mmHg 81%
23:00 +4°C° 0 mm 1 mps 586 mmHg 76%

Tomorrow, 8 May, Saturday

Time Temperature Precipitation Wind Pressure Humidity
00:00 +4°C° 0 mm 1 mps 585 mmHg 72%
01:00 +4°C° 0 mm 1 mps 585 mmHg 70%
02:00 +4°C° 0 mm 1 mps 585 mmHg 68%
03:00 +2°C° 0 mm 2 mps 585 mmHg 67%
04:00 +4°C° 0 mm 1 mps 585 mmHg 66%
05:00 +5°C° 0 mm 1 mps 586 mmHg 64%
06:00 +6°C° 0 mm 1 mps 586 mmHg 63%
07:00 +8°C° 0 mm 1 mps 587 mmHg 58%
08:00 +9°C° 0 mm 1 mps 587 mmHg 53%
09:00 +10°C° 0 mm 2 mps 588 mmHg 48%
10:00 +12°C° 0 mm 2 mps 588 mmHg 50%
11:00 +13°C° 0 mm 2 mps 588 mmHg 51%
12:00 +12°C° 0 mm 3 mps 588 mmHg 53%
13:00 +12°C° 0 mm 3 mps 588 mmHg 55%
14:00 +12°C° 0 mm 3 mps 587 mmHg 57%
15:00 +13°C° 0 mm 2 mps 587 mmHg 60%
16:00 +12°C° 0 mm 2 mps 587 mmHg 65%
17:00 +10°C° 0 mm 2 mps 586 mmHg 70%
18:00 +11°C° 0 mm 1 mps 586 mmHg 75%
19:00 +8°C° 0 mm 2 mps 586 mmHg 72%
20:00 +7°C° 0 mm 2 mps 585 mmHg 69%
21:00 +6°C° 0 mm 2 mps 585 mmHg 66%
22:00 +5°C° 0 mm 3 mps 585 mmHg 61%
23:00 +5°C° 0 mm 3 mps 584 mmHg 57%

Day after tomorrow, 9 May, Sunday

Time Temperature Precipitation Wind Pressure Humidity
00:00 +5°C° 0 mm 3 mps 584 mmHg 53%
01:00 +5°C° 0 mm 3 mps 584 mmHg 53%
02:00 +5°C° 0 mm 3 mps 583 mmHg 53%
03:00 +5°C° 0 mm 3 mps 583 mmHg 53%
04:00 +7°C° 0 mm 3 mps 583 mmHg 54%
05:00 +8°C° 0 mm 3 mps 583 mmHg 56%
06:00 +9°C° 0 mm 3 mps 583 mmHg 57%
07:00 +11°C° 0 mm 3 mps 584 mmHg 51%
08:00 +13°C° 0 mm 3 mps 584 mmHg 45%
09:00 +16°C° 0 mm 2 mps 585 mmHg 39%
10:00 +17°C° 0 mm 3 mps 585 mmHg 38%
11:00 +17°C° 0 mm 3 mps 585 mmHg 38%
12:00 +18°C° 0 mm 3 mps 585 mmHg 38%
13:00 +18°C° 0 mm 3 mps 585 mmHg 40%
14:00 +18°C° 0 mm 3 mps 585 mmHg 41%
15:00 +18°C° 0 mm 3 mps 585 mmHg 42%
16:00 +16°C° 0.1 mm 2 mps 584 mmHg 52%
17:00 +14°C° 0.1 mm 2 mps 584 mmHg 62%
18:00 +13°C° 0.1 mm 2 mps 583 mmHg 72%
19:00 +12°C° 0.2 mm 1 mps 583 mmHg 75%
20:00 +11°C° 0.2 mm 1 mps 583 mmHg 78%
21:00 +10°C° 0.2 mm 1 mps 583 mmHg 81%
22:00 +9°C° 1.3 mm 1 mps 583 mmHg 85%
23:00 +8°C° 1.3 mm 1 mps 583 mmHg 88%

10 May, Monday

Time Temperature Precipitation Wind Pressure Humidity
00:00 +8°C° 1.3 mm 1 mps 583 mmHg 92%
01:00 +6°C° 0.2 mm 2 mps 583 mmHg 94%
02:00 +6°C° 0.2 mm 2 mps 582 mmHg 95%
03:00 +5°C° 0.2 mm 2 mps 582 mmHg 97%
04:00 +4°C° 0.5 mm 3 mps 582 mmHg 97%
05:00 +3°C° 0.5 mm 3 mps 582 mmHg 97%
06:00 +3°C° 0.5 mm 3 mps 582 mmHg 98%
07:00 +2°C° 0.8 mm 3 mps 582 mmHg 98%
08:00 +1°C° 0.8 mm 3 mps 582 mmHg 98%
09:00 +1°C° 0.8 mm 3 mps 582 mmHg 98%
10:00 0°C° 1.5 mm 3 mps 582 mmHg 98%
11:00 0°C° 1.5 mm 3 mps 582 mmHg 98%
12:00 -1°C° 1.5 mm 3 mps 582 mmHg 98%
13:00 -1°C° 1.4 mm 2 mps 583 mmHg 98%
14:00 -1°C° 1.4 mm 2 mps 583 mmHg 98%
15:00 +1°C° 1.4 mm 1 mps 583 mmHg 98%
16:00 +1°C° 0.1 mm 1 mps 583 mmHg 98%
17:00 +1°C° 0.1 mm 2 mps 583 mmHg 97%
18:00 +1°C° 0.1 mm 2 mps 583 mmHg 97%
19:00 -1°C° 0 mm 2 mps 583 mmHg 96%
20:00 0°C° 0 mm 1 mps 583 mmHg 95%
21:00 0°C° 0 mm 1 mps 583 mmHg 94%
22:00 -1°C° 0 mm 1 mps 583 mmHg 92%
23:00 -1°C° 0 mm 1 mps 583 mmHg 91%

11 May, Tuesday

Time Temperature Precipitation Wind Pressure Humidity
00:00 -1°C° 0 mm 1 mps 583 mmHg 90%
01:00 -3°C° 0 mm 2 mps 583 mmHg 89%
02:00 -3°C° 0 mm 2 mps 583 mmHg 88%
03:00 -3°C° 0 mm 2 mps 582 mmHg 87%
04:00 0°C° 0 mm 1 mps 583 mmHg 86%
05:00 0°C° 0 mm 1 mps 583 mmHg 85%
06:00 +1°C° 0 mm 1 mps 583 mmHg 84%
07:00 +3°C° 0 mm 1 mps 583 mmHg 84%
08:00 +4°C° 0 mm 1 mps 584 mmHg 84%
09:00 +4°C° 0 mm 2 mps 584 mmHg 83%
10:00 +5°C° 0 mm 2 mps 584 mmHg 81%
11:00 +6°C° 0 mm 2 mps 585 mmHg 78%
12:00 +7°C° 0 mm 2 mps 585 mmHg 75%
13:00 +7°C° 0 mm 2 mps 585 mmHg 75%
14:00 +7°C° 0 mm 2 mps 585 mmHg 75%
15:00 +8°C° 0 mm 2 mps 585 mmHg 75%
16:00 +7°C° 0 mm 2 mps 585 mmHg 80%
17:00 +6°C° 0 mm 2 mps 585 mmHg 86%
18:00 +4°C° 0 mm 2 mps 585 mmHg 91%
19:00 +4°C° 0 mm 2 mps 585 mmHg 90%
20:00 +4°C° 0 mm 1 mps 585 mmHg 89%
21:00 +4°C° 0 mm 1 mps 585 mmHg 88%
22:00 +3°C° 0 mm 2 mps 585 mmHg 85%
23:00 +3°C° 0 mm 2 mps 584 mmHg 82%

12 May, Wednesday

Time Temperature Precipitation Wind Pressure Humidity
00:00 +3°C° 0 mm 2 mps 584 mmHg 79%
01:00 +3°C° 0 mm 2 mps 584 mmHg 77%
02:00 +3°C° 0 mm 2 mps 584 mmHg 75%
03:00 +3°C° 0 mm 2 mps 584 mmHg 73%
04:00 +4°C° 0 mm 2 mps 584 mmHg 72%
05:00 +5°C° 0 mm 2 mps 585 mmHg 71%
06:00 +7°C° 0 mm 1 mps 585 mmHg 70%
07:00 +8°C° 0 mm 2 mps 586 mmHg 66%
08:00 +10°C° 0 mm 2 mps 586 mmHg 61%
09:00 +13°C° 0 mm 2 mps 587 mmHg 56%
10:00 +13°C° 0 mm 2 mps 587 mmHg 54%
11:00 +14°C° 0 mm 2 mps 587 mmHg 53%
12:00 +14°C° 0 mm 3 mps 588 mmHg 51%
13:00 +15°C° 0 mm 2 mps 588 mmHg 51%
14:00 +15°C° 0 mm 2 mps 588 mmHg 51%
15:00 +15°C° 0 mm 2 mps 588 mmHg 51%
16:00 +14°C° 0 mm 2 mps 587 mmHg 56%
17:00 +13°C° 0 mm 1 mps 587 mmHg 62%
18:00 +11°C° 0 mm 0 mps 587 mmHg 67%
19:00 +11°C° 0 mm 1 mps 586 mmHg 65%
20:00 +10°C° 0 mm 1 mps 586 mmHg 63%
21:00 +8°C° 0 mm 2 mps 586 mmHg 60%
22:00 +7°C° 0 mm 2 mps 586 mmHg 58%
23:00 +7°C° 0 mm 2 mps 586 mmHg 56%
Show more